SL-8 R/B

Satellite information

Favourite Embed

Satellite Type and Status

ROCKET BODYIN ORBIT

Key statistics

Satellite SL-8 R/B at a glance.

Uptime

15404

Days in orbit

Revolutions

≈ 14.4

Per day

Orbit

LEO

Low Earth Orbit

Inclination

74.0

Latest

Satellite identification and parameters

Extended collection of information and parameters for SL-8 R/B.

Object identification

Identified? True

Debris? False

Object name: SL-8 R/B

International designator: 1983-103B

Object number (NORAD): 14402

Object ID (CCSDS): 14402

Country: COMMONWEALTH OF INDEPENDENT STATES (CIS)

Current information (Y/N): Y

RCS size: LARGE

Orbital parameters

Period: 100.187 minutes

Inclination: 74.0451 deg

SMA: 7145.548 km

Apoapsis: 785.438 km

Periapsis: 749.388 km

RAAN: 320.8726 deg

Eccentricy: 0.00252257

Argument of periapsis: 119.9625 deg

Mean anomaly: 240.4037 deg

Mean motion: 14.37306684 rev/day

Mean motion (dot): 0.00000433 rev/day2

B* drag term: 0.00015342406 1/REarth

Two-line elements (TLE)

Creation date: Dec. 14, 2025, 3:07 a.m.

Reference frame: TEME

Reference center: EARTH

Epoch: Dec. 13, 2025, 3 p.m. UTC

TLE line 0: 0 SL-8 R/B

TLE line 1: 1 14402U 83103B 25347.62524925 .00000433 00000-0 15342-3 0 9990

TLE line 2: 2 14402 74.0451 320.8726 0025226 119.9625 240.4037 14.37306684207272

Live tracking on map

Real-time ground track for satellite SL-8 R/B.

In-orbit conjunctions

A list of the most updated potential collisions computed for object SL-8 R/B.

Target Orbit TCA Probability of collision Miss distance Type
NOAA 16 DEB SSO 2025-08-24 18:17:05 0.0003153572 307.0 (m) DEBRIS
NOAA 16 DEB SSO 2024-11-27 18:44:43 0.0003261542 232.0 (m) DEBRIS
CZ-6A DEB LEO 2024-10-09 10:43:01 0.0001673729 585.0 (m) DEBRIS
COSMOS 372 LEO 2024-09-23 02:40:15 0.0003582892 453.0 (m) PAYLOAD
CZ-6A DEB SSO 2024-09-05 02:03:59 0.0001988666 609.0 (m) DEBRIS

Associated space launch

Military communications satellite

SL-8 R/B was lifted into orbit during the mission ‘Kosmos-3M | Strela-2M 33’, on board a Kosmos-3M space rocket.

The launch took place on Oct. 12, 1983, 12:20 a.m. from 132/1 (132L).

For more information about the launch, click the button.

Launch to space Kosmos-3M | Strela-2M 33
Kosmos-3M | Strela-2M 33

Agency: N/A

Status: Launch Successful

Launch date: Oct. 12, 1983, 12:20 a.m. UTC

Rocket: Kosmos-3M

Launch pad: 132/1 (132L)

Location: Plesetsk Cosmodrome, Russian Federation

...

Latest news about this satellite

There are no fresh news available about this satellite. Check back as we update our databases every day.


Newsletter sign-up

Weekly statistics, charts and insights to help you stay on top of the space industry.